User: anonymous   Login
Location: Little Chesterford
(52.0500°N, 0.1833°E)
Time: 12:06:08
(UTC+00:00)
Language:

Meteor 2-5 Rocket - Orbit

View from above orbital plane
View from above orbital plane
View from above satellite
View from above satellite

Ground track
Ground track

The orbit data is extracted from the following two-line orbital elements,

1 11608U 79095B   24056.95375655  .00000168  00000-0  92605-4 0  9999
2 11608  81.2171 358.2852 0055217 133.4403 227.1380 14.06328577273423
Epoch (UTC): 25 February 2024 22:53:24
Eccentricity: 0.0055217
inclination: 81.2171°
perigee height: 832 km
apogee height: 912 km
right ascension of ascending node: 358.2852°
argument of perigee: 133.4403°
revolutions per day: 14.06328577
mean anomaly at epoch: 227.1380°
orbit number at epoch: 27342

The dashed part of the orbit path shows where the satellite is in the earth's shadow,  

DLR